Location: Vinland
(47.7731°N, 122.6974°W)
Time: 05:27:56
(UTC+00:00)

Vanguard 2 - Pass Details

Date: 25 April 2024
Orbit: 552 x 2914 km, 32.9° (Epoch: 25 May)

Event Time Altitude Azimuth Distance (km) Brightness Sun altitude
Exits shadow 12:26:20 - 264° (W) 5,975 11.5 -6.3°
Reaches altitude 10° 12:29:27 10° 260° (W) 5,382 11.2 -5.9°
Maximum altitude 12:44:27 41° 198° (SSW) 3,751 10.7 -3.6°
Drops below altitude 10° 12:59:26 10° 136° (SE) 5,359 12.1 -1.3°
Sets 13:03:33 0° 129° (SE) 6,143 12.6 -0.6°
